Wind_Speed
19 19 19 19 20 20 21 22 23 24 25 26 28 29 30 31 32 33 33 34 35 36 36 36 36 36 36 36 36 35 34 34 33 33 33 33 33 33 32 31 31 30 28
22 22 22 22 22 23 23 24 25 26 27 29 30 31 32 33 34 35 35 36 37 38 38 38 37 37 37 37 36 36 35 35 34 34 34 34 34 34 33 33 32 31 30
25 25 25 25 25 25 26 27 28 29 30 31 32 34 34 35 36 36 37 38 39 39 39 39 39 39 38 38 37 36 36 36 35 35 35 35 35 35 35 35 34 33 33
28 28 28 29 29 29 29 30 31 32 33 34 35 36 37 37 37 38 39 40 40 40 40 40 40 39 38 38 37 37 37 37 36 36 36 36 36 36 36 36 36 35 35
31 31 32 32 32 32 32 33 34 35 35 36 37 38 39 39 39 39 41 41 42 42 42 41 41 40 39 39 39 38 37 37 37 37 37 38 38 38 38 38 38 37 37
34 34 35 35 35 35 35 36 37 37 38 39 40 40 40 40 40 41 43 43 43 43 43 42 41 41 40 40 39 39 38 38 38 39 39 39 39 39 40 40 40 40 39
37 37 37 38 38 38 38 39 40 40 41 42 42 42 42 41 42 43 44 44 44 43 42 42 41 41 41 40 40 40 40 40 40 40 40 41 40 40 41 42 42 42 42
40 40 40 40 40 40 41 41 42 43 43 43 44 45 43 42 42 43 44 44 44 43 42 41 41 41 41 41 41 41 41 41 41 41 41 41 41 41 42 42 43 43 44
43 43 43 43 43 43 43 43 44 44 45 45 45 46 45 44 44 42 42 43 43 42 42 42 42 42 42 42 42 42 42 42 41 41 41 41 42 42 42 43 45 45 45
46 46 45 45 45 45 45 45 45 46 46 46 46 45 46 46 46 45 43 41 41 41 41 41 41 42 42 42 42 42 42 41 41 41 41 41 42 42 43 44 45 46 45
48 48 47 47 47 46 46 46 47 47 47 47 46 46 46 46 46 46 43 42 41 41 41 41 42 42 42 42 42 42 41 41 40 40 41 41 42 43 43 44 44 43 44
49 49 49 48 48 47 48 47 47 47 47 46 46 46 46 46 46 44 43 41 41 41 40 41 42 42 42 42 42 41 40 40 39 39 40 40 40 41 41 41 42 42 42
50 50 49 49 48 48 48 48 47 47 46 46 46 46 46 46 44 43 42 41 40 40 40 41 42 42 42 41 41 40 39 38 38 38 37 38 38 38 39 39 40 39 40
50 49 49 48 48 48 48 47 46 46 46 46 46 46 45 44 43 42 41 40 39 39 40 40 41 41 41 40 39 38 38 37 36 36 36 36 36 35 36 37 37 36 38
49 49 49 48 47 47 46 46 46 45 45 46 45 45 44 42 41 40 40 39 39 39 39 40 40 40 40 39 38 37 36 36 35 35 35 34 33 32 33 34 33 33 34
48 48 47 47 46 46 46 45 45 45 45 45 44 43 41 40 40 39 39 38 38 38 38 39 39 39 38 38 37 36 36 35 35 34 33 32 32 31 30 29 30 32 32
48 47 47 46 46 46 45 45 45 45 44 43 42 41 40 39 38 38 37 37 37 37 38 38 38 37 36 36 36 36 36 35 35 34 33 32 31 29 28 27 27 29 30
47 46 46 46 46 45 45 45 44 44 42 41 40 39 38 38 37 36 36 36 36 36 36 36 36 36 36 36 36 36 35 34 34 33 32 31 30 29 28 27 27 28 29
47 47 46 45 44 44 44 43 42 41 40 39 38 37 37 36 35 35 35 35 35 36 36 35 35 35 36 36 35 35 34 33 33 33 32 32 31 30 29 29 28 29 29
46 46 45 44 43 43 42 41 40 39 38 37 36 36 35 34 34 34 34 34 35 35 35 35 35 35 35 35 34 34 33 33 33 33 32 32 32 31 31 30 30 30 31
43 43 42 42 42 41 40 39 38 37 37 36 35 34 34 33 33 33 33 33 34 34 34 34 34 34 34 34 34 34 34 33 33 33 33 33 33 33 33 33 33 33 33
41 40 40 39 39 38 38 38 37 36 35 34 33 32 32 32 32 32 32 33 33 33 34 34 34 35 34 34 34 34 34 34 34 34 35 34 35 35 35 35 36 36 36
39 39 39 39 38 37 37 36 35 33 32 32 31 31 31 30 31 31 32 32 33 34 34 35 35 34 34 35 34 35 35 35 35 35 36 36 36 37 38 38 38 38 39
38 38 37 36 36 35 34 34 32 31 31 30 30 30 29 29 30 31 32 33 33 34 34 34 34 34 35 35 35 35 35 36 36 37 37 38 39 39 40 40 40 40 40
35 34 34 33 33 33 32 31 30 30 29 29 29 28 29 30 30 31 32 33 34 34 34 34 34 34 35 35 35 36 36 37 37 38 39 40 41 41 41 42 42 42 42
32 32 32 32 31 31 30 29 29 29 29 28 28 29 29 30 31 32 33 34 34 34 34 34 35 35 35 36 36 37 37 38 39 40 41 42 42 42 43 43 44 44 44
Wind_Direction
276 280 284 288 291 294 297 299 301 302 303 304 305 306 306 306 306 307 307 307 307 308 308 308 308 307 307 306 305 305 304 302 301 300 298 295 293 291 289 287 284 282 280
275 278 282 285 288 291 294 296 298 300 301 302 303 304 304 304 304 305 305 306 306 307 307 307 306 306 305 305 304 303 302 301 299 298 296 294 292 290 288 285 282 279 277
274 277 280 283 287 289 291 293 295 297 298 300 301 302 303 303 303 303 304 305 305 305 305 305 304 304 304 303 302 301 301 299 298 296 294 293 291 288 286 283 281 278 276
273 276 279 282 285 287 289 290 293 294 296 298 299 301 301 301 302 302 303 304 305 304 304 303 303 303 302 301 300 300 298 297 296 294 293 291 290 287 285 282 279 276 274
272 275 278 281 283 286 287 289 291 293 295 297 298 300 300 300 301 302 303 304 304 303 302 302 301 301 300 299 299 299 298 296 295 294 292 291 288 286 284 282 279 276 273
272 275 277 280 282 284 286 287 290 292 294 295 297 299 299 300 301 302 302 303 302 302 301 301 300 300 300 299 298 297 296 295 294 293 291 290 287 286 284 281 279 276 272
271 274 276 279 281 283 285 287 289 291 293 294 296 297 298 299 300 301 302 302 301 300 299 299 299 299 299 299 298 297 295 294 293 292 290 289 287 286 284 281 278 275 271
271 273 275 278 280 282 284 286 288 290 291 293 295 296 296 297 298 300 300 300 299 298 298 298 298 298 298 297 297 296 295 294 293 292 290 288 287 286 283 281 278 276 271
271 273 275 277 278 281 283 285 286 288 290 292 294 295 296 296 296 297 297 297 296 296 296 296 296 297 297 297 297 296 295 294 293 292 290 288 287 285 283 280 277 274 271
270 272 274 276 277 279 281 283 285 287 289 291 292 293 294 295 297 297 296 295 294 294 294 295 295 296 297 297 297 296 295 295 294 293 291 289 288 286 283 280 277 274 270
269 271 273 275 276 278 280 282 284 286 288 290 291 292 293 295 296 297 296 295 293 293 293 294 295 296 297 297 298 297 297 296 295 294 292 290 288 286 283 282 278 274 270
268 269 271 273 275 277 279 281 283 285 287 288 290 291 293 294 295 295 294 294 293 293 293 294 295 297 297 298 298 298 297 297 296 296 294 292 289 286 283 281 278 274 270
267 269 271 272 274 276 278 280 283 285 286 288 290 291 293 293 293 293 293 293 293 293 293 294 296 296 297 298 298 298 298 298 297 296 296 295 292 288 284 280 278 273 271
267 269 270 272 274 277 278 280 283 284 286 288 290 291 291 291 291 291 292 292 292 293 294 295 296 296 297 298 298 298 299 298 297 297 297 297 295 290 285 280 276 272 269
266 268 270 273 275 276 278 280 282 284 286 288 289 289 289 289 289 290 291 291 292 293 294 295 296 297 297 297 297 298 299 299 298 298 298 298 297 293 287 282 276 273 270
267 269 271 273 274 276 278 280 282 284 285 286 287 287 287 288 289 289 290 291 292 293 294 296 296 297 298 298 298 298 298 298 298 298 298 298 298 295 291 285 278 273 271
268 269 271 272 274 276 278 280 282 283 284 284 285 285 286 287 288 289 290 291 292 294 295 296 297 298 298 298 299 299 297 298 298 298 297 297 297 295 291 286 280 274 271
268 269 271 273 274 276 278 280 281 282 282 283 283 284 285 286 287 289 290 291 293 295 296 297 298 298 298 298 299 300 299 298 298 298 297 297 296 295 291 286 282 277 275
268 269 271 273 275 276 278 279 279 280 280 281 282 283 284 285 287 288 290 292 294 296 297 298 298 298 299 299 300 300 300 299 298 297 296 296 295 293 291 288 284 281 279
268 269 270 272 273 275 276 276 277 278 278 279 280 281 282 284 286 289 291 293 295 296 297 298 299 299 299 299 299 300 300 300 299 298 297 295 295 293 290 288 285 282 279
268 269 270 271 272 273 273 274 275 276 277 278 278 279 281 283 286 289 292 294 296 297 298 298 299 299 299 299 299 300 300 300 299 298 297 295 294 292 290 288 285 284 281
266 267 268 269 270 271 271 272 273 274 275 275 277 279 281 284 287 290 293 295 297 297 298 299 300 299 299 299 299 299 300 300 299 299 297 296 294 292 290 288 286 284 282
264 265 266 267 268 269 270 271 272 272 273 274 276 278 281 284 288 291 293 296 297 298 299 299 300 299 299 299 299 300 300 300 299 299 298 297 295 294 291 289 287 285 283
264 265 265 266 266 268 269 269 268 270 272 274 276 279 282 286 289 292 294 296 297 298 299 300 300 300 300 300 300 300 300 300 300 299 298 298 296 294 293 290 288 285 284
263 264 264 265 266 266 266 266 267 269 271 274 277 280 284 287 290 292 295 297 298 299 299 300 300 301 301 301 300 300 300 300 300 300 299 298 297 295 293 291 288 286 285
262 262 263 263 264 264 264 265 267 268 271 274 277 280 284 287 290 293 295 297 298 299 299 300 300 300 301 301 301 301 301 301 301 300 300 299 298 296 294 292 289 287 286
Height
5877 5877 5876 5876 5875 5874 5873 5871 5870 5868 5866 5864 5861 5859 5856 5854 5851 5848 5846 5843 5840 5837 5834 5831 5828 5825 5822 5819 5817 5814 5812 5809 5807 5805 5803 5801 5800 5798 5797 5796 5795 5795 5795
5873 5872 5872 5871 5871 5870 5868 5867 5865 5863 5861 5859 5857 5854 5852 5849 5846 5843 5840 5837 5834 5831 5828 5825 5822 5819 5816 5813 5810 5807 5805 5802 5800 5798 5796 5794 5793 5791 5790 5789 5788 5788 5788
5868 5868 5867 5866 5866 5865 5863 5862 5860 5858 5856 5854 5852 5849 5846 5843 5840 5837 5834 5831 5828 5824 5821 5818 5815 5812 5809 5806 5803 5800 5798 5795 5793 5791 5789 5787 5785 5784 5782 5781 5781 5781 5780
5862 5862 5862 5861 5860 5859 5858 5856 5855 5853 5851 5848 5846 5843 5841 5837 5834 5831 5827 5824 5821 5817 5814 5810 5807 5804 5801 5798 5795 5793 5790 5787 5785 5782 5781 5779 5777 5775 5774 5773 5773 5772 5772
5856 5856 5856 5855 5854 5853 5852 5850 5849 5847 5845 5842 5839 5837 5834 5830 5827 5824 5820 5816 5813 5809 5806 5803 5799 5796 5793 5790 5787 5785 5782 5779 5776 5774 5772 5770 5768 5767 5765 5764 5764 5764 5764
5850 5850 5849 5848 5848 5847 5845 5844 5842 5840 5838 5835 5832 5830 5826 5823 5819 5816 5812 5808 5805 5801 5797 5794 5791 5788 5785 5782 5779 5776 5773 5771 5768 5765 5763 5761 5759 5757 5756 5755 5754 5754 5754
5843 5843 5842 5841 5840 5839 5838 5836 5834 5832 5830 5827 5825 5822 5819 5815 5812 5807 5804 5800 5796 5793 5789 5785 5782 5779 5776 5773 5770 5767 5765 5762 5759 5756 5753 5751 5749 5747 5746 5745 5744 5744 5744
5835 5835 5835 5834 5833 5832 5830 5828 5826 5824 5822 5819 5816 5813 5812 5810 5805 5800 5796 5791 5787 5784 5780 5777 5773 5770 5767 5764 5761 5758 5755 5752 5749 5746 5743 5741 5739 5737 5735 5734 5733 5732 5732
5827 5827 5826 5826 5825 5824 5822 5820 5818 5816 5814 5811 5808 5804 5802 5800 5797 5794 5789 5783 5779 5775 5771 5768 5764 5761 5758 5755 5751 5748 5745 5742 5739 5735 5732 5730 5727 5725 5724 5722 5721 5721 5720
5818 5818 5817 5817 5816 5815 5813 5812 5810 5807 5805 5803 5800 5796 5793 5790 5787 5785 5782 5777 5771 5766 5763 5759 5755 5752 5748 5745 5741 5738 5734 5731 5728 5725 5721 5719 5716 5713 5711 5710 5708 5708 5708
5809 5808 5808 5807 5806 5805 5804 5802 5800 5798 5796 5793 5790 5787 5784 5780 5777 5774 5771 5768 5763 5759 5754 5750 5746 5743 5739 5735 5732 5728 5724 5720 5717 5714 5711 5707 5704 5701 5699 5697 5695 5694 5695
5799 5798 5798 5797 5796 5795 5794 5792 5790 5788 5786 5784 5781 5778 5775 5771 5768 5764 5761 5758 5754 5750 5746 5741 5737 5733 5729 5725 5722 5718 5714 5710 5707 5703 5700 5696 5692 5689 5687 5684 5683 5682 5682
5788 5788 5788 5787 5786 5785 5784 5782 5780 5778 5776 5774 5771 5768 5765 5761 5758 5754 5751 5748 5744 5741 5737 5732 5728 5724 5720 5716 5712 5708 5704 5701 5697 5693 5689 5685 5682 5678 5676 5673 5671 5670 5670
5777 5777 5777 5776 5776 5774 5773 5772 5770 5768 5766 5763 5761 5758 5754 5751 5748 5745 5741 5738 5735 5731 5727 5723 5719 5715 5711 5707 5703 5699 5695 5691 5688 5684 5680 5676 5672 5668 5665 5663 5661 5660 5660
5766 5766 5766 5766 5765 5764 5763 5761 5760 5758 5755 5753 5750 5747 5744 5741 5738 5735 5732 5728 5726 5722 5719 5714 5710 5706 5702 5698 5694 5690 5686 5683 5679 5675 5671 5667 5663 5659 5656 5653 5651 5650 5651
5755 5755 5755 5755 5754 5753 5752 5751 5749 5747 5745 5742 5740 5737 5734 5731 5728 5725 5722 5719 5716 5713 5709 5705 5701 5697 5693 5689 5685 5681 5678 5674 5670 5667 5663 5659 5655 5651 5647 5645 5643 5642 5642
5744 5744 5744 5744 5743 5742 5741 5740 5738 5736 5734 5732 5729 5727 5724 5722 5719 5716 5713 5710 5707 5703 5700 5696 5692 5688 5684 5681 5677 5673 5669 5666 5662 5658 5654 5651 5647 5644 5641 5638 5636 5635 5634
5733 5733 5733 5733 5732 5731 5730 5729 5727 5725 5724 5721 5719 5717 5715 5712 5709 5706 5704 5701 5697 5694 5691 5687 5683 5679 5676 5672 5668 5664 5660 5657 5653 5650 5646 5643 5640 5637 5634 5632 5630 5628 5627
5722 5722 5722 5722 5721 5720 5719 5718 5716 5715 5713 5711 5709 5707 5705 5703 5700 5698 5695 5692 5689 5685 5682 5678 5675 5671 5667 5663 5660 5656 5652 5648 5645 5641 5638 5635 5632 5629 5627 5624 5622 5621 5619
5710 5711 5711 5710 5710 5709 5708 5707 5706 5704 5703 5701 5700 5698 5696 5694 5691 5689 5686 5683 5680 5676 5673 5670 5666 5662 5659 5655 5651 5648 5644 5640 5637 5633 5630 5627 5624 5621 5619 5617 5615 5613 5611
5699 5699 5699 5699 5699 5698 5697 5696 5695 5694 5693 5692 5690 5688 5687 5685 5682 5680 5677 5674 5671 5668 5664 5661 5657 5654 5650 5647 5643 5639 5636 5632 5628 5625 5622 5619 5616 5613 5610 5608 5606 5604 5602
5688 5688 5688 5688 5688 5687 5687 5686 5685 5684 5683 5682 5681 5680 5678 5676 5674 5671 5669 5666 5663 5659 5656 5652 5649 5645 5641 5638 5634 5630 5627 5623 5620 5617 5613 5610 5607 5604 5601 5598 5596 5593 5592
5677 5677 5677 5678 5677 5677 5677 5676 5676 5675 5674 5673 5672 5671 5669 5667 5665 5663 5660 5657 5654 5651 5647 5644 5640 5636 5633 5629 5625 5621 5618 5614 5610 5607 5603 5600 5597 5593 5590 5587 5584 5582 5580
5667 5667 5667 5667 5667 5667 5667 5667 5666 5666 5665 5665 5664 5662 5661 5659 5657 5654 5652 5649 5645 5642 5639 5635 5631 5627 5623 5620 5616 5612 5608 5605 5601 5597 5593 5590 5586 5582 5578 5575 5572 5569 5567
5657 5657 5658 5658 5658 5658 5658 5658 5658 5657 5657 5656 5655 5654 5652 5650 5648 5646 5643 5640 5637 5633 5629 5626 5622 5618 5614 5610 5606 5603 5599 5595 5591 5587 5583 5579 5574 5570 5566 5562 5559 5556 5553
5648 5648 5649 5649 5649 5649 5649 5650 5649 5649 5649 5648 5647 5646 5644 5642 5640 5637 5634 5631 5628 5624 5621 5617 5613 5609 5605 5601 5597 5593 5589 5585 5580 5576 5571 5567 5562 5558 5554 5549 5545 5542 5539